Regional Weather Roundup
Issued by NWS

Home | Current Version | Previous Version | Text Only | Print | Product List | Glossary Off
Versions: 1 2 3 4 5 6 7 8 9 10 11 12 13 14 15 16 17 18 19 20 21 22 23 24 25 26 27 28 29 30 31 32 33 34 35 36 37 38 39 40 41 42 43 44 45 46 47 48 49 50

000
ASUS43 KMKX 272220
RWRWI

WISCONSIN REGIONAL WEATHER ROUNDUP
NATIONAL WEATHER SERVICE MILWAUKEE/SULLIVAN WI
400 PM CST FRI FEB 27 2015

NOTE: "FAIR" INDICATES FEW OR NO CLOUDS BELOW 12,000 FEET WITH NO
SIGNIFICANT WEATHER AND/OR OBSTRUCTIONS TO VISIBILITY.

WIZ001-002-006>008-014>016-023>028-272300-
NORTHWEST WISCONSIN

CITY           SKY/WX    TMP DP  RH WIND       PRES   REMARKS
SUPERIOR ARPT  SUNNY     20  -4  34 SW14      30.43S WCI   7
ASHLAND        SUNNY     19  -6  33 SW10      30.42F WCI   7
HAYWARD        SUNNY     15  -7  37 SW9       30.42F WCI   3
SIREN          SUNNY     16  -6  37 W10       30.46S WCI   4
CUMBERLAND     SUNNY     14  -4  44 SW8       30.44F WCI   3
RICE LAKE      SUNNY     15  -3  45 SW6       30.48S WCI   6
CHETEK         SUNNY     14  -2  48 SW7       30.47F WCI   4
LADYSMITH      SUNNY     15  -6  37 SW8       30.45F WCI   4
EAU CLAIRE     SUNNY     13  -2  51 W10       30.51S WCI   0
MENOMONIE      SUNNY     15   0  50 SW8       30.51S WCI   4
NEW RICHMOND   SUNNY     17  -1  45 SW8       30.48F WCI   6
OSCEOLA        SUNNY     18   0  45 SW6       30.51F WCI  10
$$

WIZ003>005-009-010-017-018-272300-
NORTH CENTRAL WISCONSIN

CITY           SKY/WX    TMP DP  RH WIND       PRES   REMARKS
MANITOWISH WTR SUNNY     16  -6  37 W10       30.35S WCI   3
ARBOR VITAE    SUNNY     17  -5  37 SW8       30.35S WCI   6
WOODRUFF       SUNNY     17  -5  37 SW8       30.35S WCI   6
RHINELANDER    SUNNY     16  -4  41 W10       30.36F WCI   4
EAGLE RIVER    SUNNY     16  -6  37 W8        30.34S WCI   5
LAND O LAKES   SUNNY     19  -6  33 W8        30.34R WCI   8
PHILLIPS       SUNNY     14  -4  45 SW12      30.38S WCI   0
TOMAHAWK       SUNNY     16  -6  37 CALM      30.39F
MEDFORD        SUNNY     10  -4  53 SW9       30.43S WCI  -3
MERRILL        SUNNY     13  -4  46 SW12      30.43S WCI   0
$$

WIZ029-030-035-036-043>047-272300-
CENTRAL WISCONSIN

CITY           SKY/WX    TMP DP  RH WIND       PRES   REMARKS
WAUSAU         SUNNY     12  -4  48 SW10      30.44S WCI  -1
MOSINEE        SUNNY     12  -2  52 W13       30.46S WCI  -3
MARSHFIELD     SUNNY     13  -4  46 W12       30.46S WCI  -1
STEVENS POINT  SUNNY     14  -8  36 SW12G18   30.47S WCI   0
WAUPACA        SUNNY     21  -4  33 W9        30.49S WCI  10
WAUTOMA        SUNNY     18  -5  36 W8        30.50F WCI   8
WISC RAPIDS    SUNNY     16  -7  35 W12       30.49S WCI   3
CAMP DOUGLAS   SUNNY     17  -4  39 W9        30.51S WCI   5
$$

WIZ011>013-019>022-031-037>040-048>050-272300-
NORTHEAST WISCONSIN

CITY           SKY/WX    TMP DP  RH WIND       PRES   REMARKS
ANTIGO         SUNNY     11  -4  50 W13       30.40S WCI  -4
SHAWANO        SUNNY     19  -5  33 W10       30.47F WCI   8
OCONTO         SUNNY     19  -3  39 W12       30.47S WCI   6
STURGEON BAY   SUNNY     16   0  48 SW12      30.48S WCI   3
GREEN BAY      SUNNY     18   0  45 SW13      30.49S WCI   5
MANITOWOC      SUNNY     18   1  47 W12       30.51  WCI   5
APPLETON       SUNNY     18  -4  38 W9        30.49S WCI   6
CLINTONVILLE   SUNNY     18  -6  35 W9        30.48S WCI   6
OSHKOSH        SUNNY     18  -2  41 SW9       30.50S WCI   7
$$

WIZ032>034-041-042-053>061-272300-
SOUTHWEST WISCONSIN

CITY           SKY/WX    TMP DP  RH WIND       PRES   REMARKS
LA CROSSE      SUNNY     16  -3  43 NW7       30.55F WCI   6
SPARTA         SUNNY     15  -6  38 SW7       30.54S WCI   6
VIROQUA        SUNNY     13  -4  46 W8        30.49F WCI   1
BOSCOBEL       SUNNY     15  -4  42 SW10      30.58S WCI   2
PRAIRIE DU CHI SUNNY     12  -5  46 W9        30.59F WCI  -1
PLATTEVILLE    SUNNY     11  -3  52 SW7       30.55S WCI   0
$$

WIZ056-057-062-063-064-067-068-272300-
SOUTH CENTRAL WISCONSIN

CITY           SKY/WX    TMP DP  RH WIND       PRES   REMARKS
REEDSBURG      SUNNY     16  -3  43 W7        30.51F WCI   6
BARABOO/DELLS  SUNNY     15  -3  43 W6        30.51F WCI   7
LONE ROCK      SUNNY     16  -4  41 W7        30.55F WCI   6
MINERAL POINT  SUNNY     14  -6  41 SW9       30.53S WCI   2
MADISON        SUNNY     16  -4  41 SW6       30.53S WCI   7
MIDDLETON      SUNNY     17  -5  36 SW9       30.54S WCI   6
WATERTOWN      SUNNY     15  -2  47 SW10      30.54R WCI   2
MONROE         SUNNY     14   0  52 W7        30.54S WCI   4
JANESVILLE     SUNNY     14  -4  44 W13       30.57S WCI   0
$$

WIZ051-052-058>065-066-070>072-272300-
SOUTHEAST WISCONSIN

CITY           SKY/WX    TMP DP  RH WIND       PRES   REMARKS
MILWAUKEE      SUNNY     15  -4  42 SW12      30.55S WCI   2
WAUKESHA       SUNNY     12  -6  44 SW10      30.54S WCI  -1
MILWAUKEE/TIMM SUNNY     18  -6  35 SW9       30.55S WCI   6
RACINE         SUNNY     14  -5  42 W8        30.58S WCI   3
BURLINGTON     SUNNY     12  -6  44 W8        30.56F WCI   1
KENOSHA        SUNNY     12  -3  51 W9        30.56F WCI   0
FOND DU LAC    SUNNY     17  -2  43 W9        30.51S WCI   6
SHEBOYGAN      SUNNY     16   0  49 W12       30.51F WCI   3
WEST BEND      SUNNY     18  -4  38 W10G16    30.51F WCI   6
JUNEAU         SUNNY     15  -2  48 SW12      30.53S WCI   2
$$

LSZ147-162-272300-
LAKE SUPERIOR

STATION/POSITION TIME  TEMP    WIND        PRES    WAVE
                       AIR SEA DIR/SP/G            HT/PER
                 (UTC) (F)     (DEG/KT/KT) (MB)    (FT/S)
DEVILS ISLAND    2200   17     230/ 16/ 20 1030.9F
PORT WING        2100   18     270/  9/ 13 1030.1F
SAXON HARBOR     2100   19     210/  6/ 12 1030.5R
$$

LMZ867-665-643>646-272300-
LAKE MICHIGAN

STATION/POSITION TIME  TEMP    WIND        PRES    WAVE
                       AIR SEA DIR/SP/G            HT/PER
                 (UTC) (F)     (DEG/KT/KT) (MB)    (FT/S)
NORTHPORT PIER   2100   17     210/  4/ 10 1031.2
SISTER BAY       2113          220/ 16/ 17   N/A
KEWAUNEE LAKESHO 2100   17     240/  8/ 13 1031.6S
SHEBOYGAN LAKESH 2200   17     250/ 12/ 15 1035.3F
PORT WASHINGTON  2140   20     240/  7/ 11 1034.9S
MILWAUKEE LAKESH 2200   17     230/  7/ 11   N/A
KENOSHA   LAKESH 2200   14     250/  9/ 15 1035.2S
$$

TC  - TEMPERATURE IN CELSIUS
VSB - VISIBILITY IN STATUTE MILES
WCI - WIND CHILL INDEX
HX  - HEAT INDEX




USA.gov is the U.S. government's official web portal to all federal, state and local government web resources and services.